Skip Page Navigation
NASA JPL Caltech
NASA Logo - Jet Propulsion Laboratory + View the NASA Portal
+ Center for Near-Earth Object Studies
JPL Home Earth Solar System Stars & Galaxies Technology
JPL Solar System Dynamics
BODIES ORBITS EPHEMERIDES TOOLS PHYSICAL DATA DISCOVERY FAQ SITE MAP
JPL Small-Body Database Browser
Search: [ help ]  
120086 (2003 EU24)
Classification: Main-belt Asteroid          SPK-ID: 2120086
Ephemeris | Orbit Diagram | Orbital Elements | Mission Design | Physical Parameters | Discovery Circumstances | Close-Approach Data ]

[ show orbit diagram ]
Orbital Elements at Epoch 2459000.5 (2020-May-31.0) TDB
Reference: JPL 18 (heliocentric ecliptic J2000)
 Element Value Uncertainty (1-sigma)   Units 
e .04176755864937597 6.4586e-08  
a 2.671538975837565 1.8426e-08 au
q 2.559955314980176 1.8052e-07 au
i 4.946198934815986 5.1452e-06 deg
node 133.8962895367188 5.0319e-05 deg
peri 71.26042408289773 7.8645e-05 deg
M 307.3630568581341 6.1802e-05 deg
tp 2459233.700167470112
(2021-Jan-19.20016747)
0.00027459 TDB
period 1594.926591063134
4.37
1.6501e-05
4.518e-08
d
yr
n .2257157175867473 2.3352e-09 deg/d
Q 2.783122636694955 1.9196e-08 au
  Orbit Determination Parameters
   # obs. used (total)      503  
   data-arc span      7203 days (19.72 yr)  
   first obs. used      2000-07-30  
   last obs. used      2020-04-19  
   planetary ephem.      DE431  
   SB-pert. ephem.      SB431-N16  
   condition code      0  
   norm. resid. RMS      .56085  
   source      ORB  
   producer      Otto Matic  
   solution date      2020-May-20 20:34:14  

Additional Information
 Earth MOID = 1.5611 au 
 Jupiter MOID = 2.18248 au 
 T_jup = 3.374 
[ show covariance matrix ]

Ephemeris | Orbit Diagram | Orbital Elements | Mission Design | Physical Parameters | Discovery Circumstances | Close-Approach Data ]

Physical Parameter Table
Parameter Symbol Value Units Sigma Reference Notes
absolute magnitude H 15.8   n/a MPO453672  

120086 (2003 EU24)          Discovered 2003-Mar-06 by LINEAR at Socorro
Reference: 20051116/Numbers.arcLast Updated: 2005-11-21

[ show close-approach data ]
Alternate Designations
 2003 EU24 = 2001 XZ203 
Ephemeris | Orbit Diagram | Orbital Elements | Mission Design | Physical Parameters | Discovery Circumstances | Close-Approach Data ]
ABOUT SSD CREDITS/AWARDS PRIVACY/COPYRIGHT GLOSSARY LINKS
FirstGov 2020-Oct-25 12:09 UT
(server date/time)  
NASA Home Page
Site Manager:   Ryan S. Park
Webmaster  Alan B. Chamberlin